Probability
48 45 71 61 35 29 29 42 35 39 29 29 13 19 16 23 19 35 45 58 52 58 55 52 32 58 55 55 35 39 45 42 42 42 35 23 26 35 23 13 19 16 19
61 55 65 68 39 32 32 39 39 55 39 35 26 26 26 26 48 48 35 55 48 58 58 52 52 58 52 55 52 42 48 48 48 48 39 35 29 23 19 16 19 19 16
74 68 58 68 52 45 55 58 45 48 45 42 35 35 42 42 52 52 45 45 61 55 58 65 61 55 58 55 55 52 55 55 58 35 39 35 39 32 26 19 13 13 16
77 81 58 55 55 35 52 61 58 48 52 58 52 52 52 68 52 58 55 61 65 39 45 52 55 55 55 58 55 48 45 48 42 55 39 23 13 13 13 16 16 13 16
71 77 77 74 71 61 58 52 58 61 71 68 48 68 55 58 52 39 42 32 45 52 48 45 48 58 58 58 61 65 55 52 39 39 29 26 19 23 13 10 13 10 13
71 74 71 77 68 71 81 74 74 77 81 74 45 39 55 52 48 52 45 39 42 42 35 32 58 55 45 58 61 65 61 61 58 39 35 26 23 16 16 13 13 6 6
81 81 68 84 81 74 71 55 71 77 68 74 58 48 45 42 55 58 45 48 32 32 39 42 61 65 68 32 39 65 65 55 58 61 55 35 39 23 13 13 13 13 10
71 61 81 74 77 84 77 74 90 71 58 61 65 52 32 35 61 6 48 55 35 42 32 32 55 58 55 61 29 16 35 55 55 58 58 55 45 42 32 16 16 6 6
77 81 71 71 77 74 77 84 81 77 77 68 55 52 45 26 10 10 29 23 42 45 35 29 39 55 55 52 61 13 29 26 45 48 52 55 42 32 29 19 19 10 10
81 81 77 77 81 77 84 74 71 77 77 68 55 52 35 26 32 16 13 19 35 52 42 23 23 35 45 48 48 23 19 13 16 26 45 48 52 35 32 26 23 16 13
71 68 68 74 74 71 71 71 77 71 71 68 55 52 45 52 48 48 29 19 26 42 32 39 42 39 48 48 55 32 13 10 6 6 19 29 35 39 35 29 35 29 26
71 61 58 74 71 68 71 74 71 65 65 71 65 55 55 52 48 48 45 39 35 23 19 42 32 35 42 42 35 10 10 6 0 3 3 6 16 16 23 26 26 26 29
52 58 48 61 68 68 65 65 65 65 68 61 65 52 52 42 42 39 35 32 26 23 19 23 23 32 29 35 32 6 3 3 0 0 0 3 3 3 3 10 16 13 16
42 42 48 52 52 55 45 58 52 55 58 58 48 58 45 32 26 32 29 23 23 26 23 16 19 16 16 19 16 0 10 0 0 0 0 0 0 0 3 3 3 3 3
42 42 48 48 42 48 39 52 55 52 52 48 42 48 42 23 29 29 23 19 23 23 13 26 19 10 23 19 6 13 19 3 0 0 0 0 0 0 0 0 0 0 0
35 32 39 35 35 35 32 39 39 39 42 39 39 39 35 23 19 23 23 26 26 29 16 16 23 16 23 3 3 16 16 3 0 0 0 0 0 0 0 0 0 0 0
32 29 32 35 32 29 32 32 29 35 35 39 35 32 32 29 26 26 32 35 35 29 19 13 10 13 23 19 16 19 19 23 10 0 0 0 0 0 0 0 0 0 0
29 26 29 32 32 29 29 29 26 26 23 32 32 29 29 29 29 23 32 29 35 39 23 19 23 13 19 10 13 13 10 3 6 0 0 0 0 0 0 0 0 0 0
26 26 29 32 29 29 26 26 23 23 26 26 23 26 23 26 26 26 26 26 35 16 23 19 10 23 6 6 16 13 6 13 3 0 0 0 0 0 0 0 0 0 0
29 26 23 19 26 23 26 23 23 23 23 19 19 19 19 26 26 26 16 16 23 23 23 19 13 6 10 10 13 10 6 6 3 0 0 0 0 0 0 0 0 0 0
26 26 26 26 23 23 19 19 19 16 23 19 16 13 13 10 6 6 3 10 19 23 16 10 10 3 6 13 10 10 6 6 3 6 6 0 0 0 0 0 0 0 0
26 26 26 23 23 13 10 10 13 19 19 16 16 13 10 3 0 0 0 0 0 6 16 19 13 10 6 10 10 3 3 3 3 3 3 3 0 0 0 0 0 0 0
26 23 23 23 19 13 0 0 0 10 13 13 16 10 0 0 0 0 0 0 0 0 0 6 13 13 10 6 3 3 3 0 0 3 0 0 0 0 0 0 0 0 0
23 23 19 19 13 6 0 0 0 6 13 10 3 6 3 0 0 0 0 0 0 0 0 0 3 3 0 0 0 0 3 0 0 0 0 0 0 0 0 0 0 0 0
13 19 16 13 13 3 0 0 0 3 6 3 0 0 0 0 0 0 0 0 0 0 0 0 0 0 0 0 0 0 0 0 0 0 0 0 0 0 0 0 0 0 0
10 13 6 10 10 10 0 0 0 3 3 0 0 0 0 0 0 0 0 0 0 0 0 0 0 0 0 0 0 0 0 0 0 0 0 0 0 0 0 0 0 0 0
Height
5908 5908 5908 5908 5909 5909 5909 5909 5909 5909 5909 5910 5910 5910 5910 5910 5909 5909 5909 5909 5909 5909 5908 5908 5908 5907 5907 5907 5907 5907 5907 5906 5906 5906 5906 5906 5906 5905 5905 5905 5905 5905 5905
5909 5909 5909 5909 5909 5909 5910 5910 5910 5910 5910 5910 5910 5910 5910 5910 5910 5909 5909 5909 5908 5908 5908 5908 5908 5907 5907 5907 5906 5906 5906 5906 5905 5905 5905 5905 5905 5904 5904 5904 5904 5904 5904
5909 5909 5910 5910 5910 5910 5910 5910 5910 5910 5911 5911 5911 5910 5910 5910 5910 5909 5909 5909 5908 5908 5908 5907 5907 5906 5906 5906 5905 5905 5905 5904 5904 5904 5904 5903 5903 5903 5903 5903 5903 5902 5902
5910 5910 5910 5910 5910 5910 5910 5910 5910 5910 5910 5910 5910 5910 5910 5910 5909 5909 5909 5908 5908 5907 5907 5907 5906 5906 5905 5905 5904 5904 5903 5903 5903 5902 5902 5902 5901 5901 5901 5901 5900 5900 5900
5910 5910 5910 5910 5909 5909 5910 5910 5910 5910 5910 5910 5910 5910 5909 5909 5909 5909 5908 5908 5907 5907 5906 5906 5905 5905 5904 5903 5903 5902 5902 5901 5901 5900 5900 5899 5899 5899 5898 5898 5898 5898 5897
5910 5910 5910 5909 5909 5909 5909 5910 5910 5909 5909 5909 5909 5909 5908 5908 5908 5908 5907 5907 5906 5905 5905 5904 5904 5903 5903 5902 5901 5901 5900 5899 5898 5898 5897 5897 5896 5896 5895 5895 5895 5894 5894
5910 5910 5909 5909 5909 5909 5909 5909 5909 5909 5908 5908 5908 5908 5907 5907 5906 5906 5906 5905 5904 5904 5903 5902 5902 5901 5900 5900 5899 5898 5897 5897 5896 5895 5894 5894 5893 5892 5892 5892 5891 5891 5890
5909 5909 5909 5909 5908 5908 5908 5908 5908 5907 5907 5906 5906 5906 5906 5906 5905 5904 5903 5903 5902 5901 5901 5900 5900 5899 5898 5897 5896 5895 5895 5894 5893 5892 5891 5890 5889 5889 5888 5888 5887 5887 5886
5909 5908 5908 5908 5907 5907 5907 5906 5906 5905 5905 5905 5904 5904 5904 5903 5902 5902 5901 5900 5899 5899 5898 5898 5897 5896 5895 5894 5893 5892 5891 5891 5889 5888 5887 5886 5885 5885 5884 5883 5882 5882 5881
5908 5907 5907 5906 5906 5906 5905 5905 5904 5903 5903 5902 5902 5901 5901 5900 5899 5899 5898 5897 5896 5896 5895 5894 5894 5893 5892 5891 5890 5889 5888 5887 5885 5884 5883 5882 5881 5880 5879 5878 5877 5877 5876
5906 5906 5905 5905 5904 5904 5903 5902 5902 5901 5900 5899 5899 5898 5897 5897 5896 5895 5895 5894 5893 5892 5891 5891 5890 5889 5888 5887 5886 5885 5884 5883 5881 5880 5879 5877 5876 5875 5874 5873 5872 5871 5870
5905 5904 5904 5903 5902 5902 5901 5900 5899 5898 5897 5896 5895 5894 5894 5893 5892 5891 5890 5890 5889 5889 5888 5887 5886 5885 5883 5882 5881 5880 5879 5878 5877 5876 5874 5873 5871 5870 5869 5868 5866 5865 5864
5903 5902 5901 5901 5900 5899 5898 5897 5896 5895 5893 5892 5892 5891 5890 5888 5887 5887 5887 5886 5885 5885 5883 5882 5881 5880 5879 5878 5877 5875 5874 5873 5871 5870 5868 5867 5866 5864 5863 5862 5860 5859 5857
5900 5899 5899 5898 5897 5896 5895 5894 5893 5891 5890 5889 5888 5887 5886 5884 5883 5883 5883 5882 5881 5880 5879 5878 5876 5876 5875 5873 5872 5870 5869 5867 5866 5864 5863 5861 5860 5859 5857 5855 5853 5852 5850
5898 5897 5896 5896 5895 5893 5892 5891 5890 5888 5887 5886 5885 5884 5882 5881 5880 5880 5879 5878 5878 5876 5875 5873 5872 5871 5869 5868 5866 5865 5863 5862 5860 5859 5857 5855 5854 5852 5850 5848 5847 5845 5843
5896 5895 5894 5893 5892 5891 5890 5888 5887 5886 5884 5883 5882 5881 5879 5878 5877 5876 5875 5874 5873 5872 5871 5869 5867 5866 5864 5862 5860 5859 5857 5856 5854 5852 5851 5849 5847 5845 5843 5841 5840 5837 5835
5893 5893 5892 5891 5890 5889 5888 5886 5885 5883 5882 5880 5879 5877 5876 5874 5873 5872 5871 5870 5869 5868 5866 5864 5862 5860 5858 5857 5855 5853 5851 5849 5848 5846 5844 5842 5840 5838 5836 5834 5832 5829 5827
5891 5890 5890 5889 5888 5887 5885 5884 5883 5881 5879 5877 5876 5874 5873 5871 5870 5868 5866 5865 5864 5862 5861 5859 5857 5855 5853 5851 5849 5847 5845 5843 5841 5839 5837 5835 5833 5830 5828 5825 5823 5821 5818
5889 5888 5887 5886 5885 5884 5883 5882 5880 5879 5877 5875 5873 5872 5870 5868 5866 5864 5862 5860 5859 5857 5856 5854 5852 5850 5848 5846 5843 5841 5839 5836 5834 5832 5830 5828 5825 5823 5820 5817 5814 5812 5809
5887 5886 5885 5884 5883 5882 5880 5879 5877 5876 5874 5873 5871 5869 5867 5864 5862 5860 5857 5856 5854 5852 5851 5849 5847 5845 5842 5840 5837 5835 5832 5830 5827 5825 5823 5820 5817 5814 5812 5809 5806 5803 5800
5885 5884 5883 5881 5880 5879 5878 5876 5875 5873 5871 5869 5868 5866 5863 5861 5858 5856 5854 5852 5850 5848 5846 5844 5842 5839 5837 5834 5831 5828 5826 5823 5820 5817 5815 5812 5809 5806 5803 5800 5797 5794 5791
5882 5881 5880 5879 5878 5876 5875 5873 5872 5870 5868 5866 5864 5862 5860 5858 5855 5852 5850 5847 5845 5843 5841 5839 5836 5834 5831 5828 5825 5822 5819 5816 5813 5811 5807 5804 5800 5797 5794 5791 5788 5785 5781
5879 5878 5877 5876 5875 5874 5872 5871 5869 5867 5865 5863 5861 5859 5856 5854 5851 5848 5846 5843 5841 5838 5836 5833 5830 5828 5825 5822 5819 5815 5812 5809 5806 5802 5799 5795 5792 5788 5785 5781 5778 5775 5771
5877 5875 5874 5873 5871 5870 5869 5867 5866 5864 5861 5859 5857 5855 5852 5849 5846 5844 5841 5838 5835 5833 5830 5827 5824 5821 5818 5815 5812 5809 5805 5802 5798 5794 5790 5787 5783 5779 5775 5771 5768 5764 5760
5873 5872 5871 5869 5868 5866 5865 5863 5861 5859 5857 5855 5853 5850 5848 5845 5842 5839 5836 5833 5830 5827 5824 5821 5818 5814 5811 5808 5805 5802 5798 5794 5790 5786 5782 5778 5774 5770 5766 5761 5757 5753 5749
5869 5868 5867 5866 5864 5863 5861 5859 5857 5855 5852 5850 5848 5845 5842 5839 5837 5833 5831 5827 5824 5821 5817 5814 5811 5808 5804 5801 5797 5794 5790 5786 5781 5778 5773 5769 5764 5760 5756 5751 5747 5743 5739
Wind_Speed
6 6 6 6 5 5 5 4 4 4 5 5 4 3 3 2 2 1 1 1 1 1 1 1 1 0 1 1 1 2 2 2 2 3 3 3 4 4 4 4 4 4 4
5 5 5 5 5 4 4 3 3 3 4 3 3 3 2 1 1 0 0 1 1 1 2 2 2 2 2 2 2 3 3 4 4 4 5 5 5 5 5 5 5 5 6
4 4 4 4 3 3 3 2 3 2 2 2 1 1 0 0 1 1 1 2 2 2 3 2 2 3 3 3 4 4 5 5 6 6 6 6 7 7 7 8 8 8 8
3 3 2 2 1 1 2 2 2 2 1 1 1 1 2 2 2 2 2 3 3 4 4 4 4 4 4 5 5 6 7 7 7 8 8 8 9 9 10 10 10 10 10
2 2 1 1 1 1 1 1 1 2 2 2 2 3 3 4 4 4 4 5 5 5 5 6 6 6 6 6 7 7 8 8 9 9 10 10 11 11 12 12 12 12 12
1 1 1 1 1 1 2 2 2 3 3 4 4 4 5 6 6 6 7 7 7 7 7 7 8 8 8 8 8 9 9 10 10 11 12 12 13 13 13 14 14 14 15
3 3 2 2 3 2 3 3 4 4 5 5 6 6 7 7 8 8 9 9 9 9 9 9 10 10 11 11 10 11 11 12 12 13 13 14 14 15 15 15 16 16 17
4 4 5 4 4 4 5 6 6 7 7 7 8 8 8 9 9 10 10 11 11 11 10 11 11 12 12 12 12 13 14 14 15 15 15 16 16 16 17 17 17 18 18
5 6 6 6 6 7 7 8 8 8 9 9 10 10 11 11 11 12 12 12 12 12 12 12 13 13 14 14 14 15 15 16 17 17 17 17 17 18 18 18 18 19 19
6 6 7 7 8 9 9 9 10 10 11 11 11 12 12 13 13 13 13 13 13 13 13 14 14 15 16 16 16 17 18 18 18 18 19 19 19 20 20 20 20 20 21
7 7 7 8 8 9 9 10 10 11 12 13 13 13 13 14 14 14 14 14 14 14 14 15 15 16 17 17 18 19 19 19 19 19 19 20 20 21 21 22 23 23 24
8 8 8 9 9 9 10 11 12 13 13 14 14 14 15 15 15 14 14 15 15 16 16 17 16 17 18 19 20 20 21 21 21 21 21 22 22 22 23 24 25 26 26
9 10 10 10 10 11 11 12 13 13 13 14 14 14 15 15 15 15 15 15 16 17 17 17 18 18 19 20 21 22 21 21 22 22 22 22 23 23 23 24 26 27 28
10 10 10 11 11 11 11 12 13 13 13 13 13 14 14 13 14 15 15 15 15 17 18 18 19 19 20 20 21 21 21 22 23 23 23 24 24 24 25 25 26 27 28
9 9 9 10 10 11 11 12 12 12 12 12 12 13 13 14 14 14 14 15 16 17 18 19 19 19 20 21 21 21 22 23 23 23 24 24 25 26 26 27 27 28 29
9 9 9 10 10 11 12 11 11 11 11 12 12 13 14 15 15 15 16 17 17 17 18 19 20 21 22 22 23 23 24 24 24 24 25 25 26 27 29 29 30 30 31
8 9 9 9 10 10 11 11 10 11 11 12 12 12 13 14 15 16 17 17 17 18 19 20 21 22 23 23 24 24 24 24 24 25 26 27 28 29 30 30 31 32 32
8 9 9 10 10 10 10 11 11 11 12 12 13 13 14 14 15 16 17 18 18 19 20 21 22 23 23 24 24 24 25 25 26 27 27 28 29 29 30 31 31 32 33
8 9 10 10 10 10 11 11 11 12 12 12 13 13 14 15 16 16 17 17 18 19 21 22 22 22 23 23 24 25 26 26 26 27 28 29 30 31 31 31 32 32 32
9 9 10 10 10 11 11 12 12 12 13 14 14 14 15 16 16 17 17 17 18 19 20 20 21 22 22 23 24 26 26 27 27 28 30 30 31 31 32 32 33 33 33
10 10 10 10 11 11 12 12 13 13 14 15 15 15 16 16 17 17 18 18 19 19 20 21 22 23 24 25 26 26 26 27 28 29 30 30 31 32 32 33 33 34 34
12 12 11 11 11 11 12 13 13 14 14 15 15 16 17 18 18 18 19 19 20 21 21 23 23 24 25 27 27 27 28 28 29 30 31 31 32 33 34 34 34 34 35
12 12 12 12 12 13 13 14 14 15 15 16 17 17 18 19 19 20 20 21 21 22 23 24 25 26 27 28 28 28 29 30 30 31 32 32 33 33 34 35 36 36 36
12 12 12 13 13 14 15 15 16 17 17 17 18 19 20 21 21 22 22 22 22 23 24 25 25 26 27 28 28 29 29 30 30 31 32 32 33 35 36 37 37 37 37
13 13 14 14 15 15 16 16 17 17 18 18 19 20 21 22 23 24 24 24 24 25 25 26 26 27 27 28 29 30 31 32 32 33 33 34 35 36 37 37 38 38 38
14 15 15 15 16 17 17 18 19 19 19 20 20 21 23 24 24 24 25 25 26 26 26 27 28 28 28 29 30 32 32 33 34 34 35 36 36 37 37 37 37 36 36
Wind_Direction
106 106 109 109 108 109 112 116 113 113 111 109 110 110 110 117 118 115 106 105 68 50 36 34 13 243 260 269 273 275 265 260 252 255 260 263 263 264 264 263 264 267 270
105 103 103 104 106 108 113 116 117 121 125 122 117 109 108 115 97 45 292 287 313 313 327 330 329 310 279 272 281 276 271 264 262 262 263 264 265 267 266 266 267 268 271
102 102 99 106 104 104 117 129 133 132 144 149 147 150 106 68 337 301 283 284 291 288 288 297 303 313 314 298 292 283 275 271 267 267 264 265 266 267 267 266 269 269 270
90 102 100 98 109 109 128 162 180 179 196 221 247 266 279 292 307 304 290 289 295 289 285 289 295 303 305 299 294 294 287 280 272 271 270 269 268 268 267 267 268 268 269
70 73 56 42 14 198 193 208 219 231 242 267 274 283 290 290 290 292 288 292 295 292 285 288 289 291 295 292 292 295 293 288 279 275 276 275 272 271 270 268 267 268 268
319 341 344 357 343 279 249 258 288 270 265 276 285 286 286 288 288 289 288 289 288 287 287 287 288 287 287 288 288 290 292 289 287 282 280 279 274 273 273 270 269 270 270
290 292 296 320 318 315 288 282 290 291 281 281 286 285 282 284 288 288 289 289 289 288 284 284 287 286 285 284 285 288 287 288 288 288 287 284 278 275 275 274 272 272 272
292 284 284 292 298 295 288 283 285 286 285 284 284 286 283 285 286 288 288 288 288 287 283 280 283 284 286 287 288 288 285 285 285 285 285 284 282 281 277 276 275 273 272
291 286 283 284 287 290 287 282 282 283 284 285 285 284 284 285 289 288 290 289 288 285 282 281 280 281 282 284 286 286 285 285 284 284 285 283 281 280 280 280 276 273 271
294 289 286 289 290 290 290 286 283 282 284 287 288 284 283 284 286 287 288 286 287 286 282 279 279 281 282 283 285 285 286 287 287 285 285 283 282 279 277 279 277 274 274
287 286 287 293 292 291 293 293 290 287 285 285 286 286 284 283 284 285 284 283 283 284 284 280 278 280 284 284 285 285 285 285 286 286 285 285 284 283 280 279 279 278 277
285 285 286 287 289 290 291 293 294 292 287 285 286 287 285 285 285 283 279 280 282 282 283 282 280 281 284 284 283 285 286 286 285 284 285 284 284 284 283 282 282 281 280
284 286 284 286 286 287 291 296 296 295 289 287 287 287 288 288 284 281 278 279 282 283 285 284 283 283 286 285 284 282 284 286 287 286 285 284 285 287 287 286 285 282 282
288 288 286 286 287 292 294 296 297 295 291 290 290 288 289 288 284 280 279 281 282 283 285 288 285 285 287 286 285 283 283 285 285 286 286 286 286 287 288 288 288 286 285
290 292 291 290 293 294 296 298 299 299 293 292 291 291 289 288 287 284 280 280 282 284 284 286 287 287 288 287 287 286 286 285 284 284 285 286 286 287 287 287 287 287 286
290 291 292 293 297 301 303 302 303 302 299 296 294 293 291 288 286 284 282 281 282 284 285 286 288 288 289 290 290 289 288 289 287 287 286 286 286 287 287 287 287 288 288
291 292 294 294 299 302 306 307 307 304 302 301 298 299 301 296 292 290 286 285 285 286 286 287 290 290 290 291 292 292 291 290 289 289 289 288 288 288 288 287 287 287 287
295 296 294 289 294 299 304 308 308 307 308 307 305 304 306 304 299 295 291 288 287 287 287 289 291 291 291 292 293 293 294 292 291 290 289 289 290 291 290 289 288 287 287
300 299 297 291 294 299 303 305 307 310 311 312 312 310 307 306 304 302 300 296 293 292 292 292 293 294 295 294 294 295 295 294 293 291 290 290 291 292 292 291 291 290 291
299 299 299 299 300 300 301 303 304 307 310 311 312 313 313 310 309 306 305 301 298 297 297 297 297 297 298 298 298 296 295 294 292 291 292 294 294 293 293 293 292 292 291
298 299 300 298 299 299 298 300 302 305 307 309 310 310 311 313 313 311 309 304 302 301 300 299 298 298 299 300 300 299 299 299 295 294 294 296 296 296 295 294 294 293 292
296 297 297 299 299 302 303 302 302 304 307 310 311 312 311 312 314 312 310 307 303 300 299 299 298 299 300 301 301 301 301 301 299 297 296 297 298 297 297 296 295 294 293
296 295 294 295 299 303 305 306 305 305 306 308 309 310 310 311 311 312 310 308 306 304 302 302 301 300 301 301 302 301 301 300 300 299 299 299 299 298 298 297 296 295 294
293 293 292 293 296 298 300 302 304 304 305 305 308 309 310 311 311 311 310 307 306 304 303 302 302 302 302 302 302 301 301 301 301 302 302 300 299 299 299 298 298 297 296
293 293 292 294 296 297 298 300 302 302 303 304 306 307 308 310 310 309 308 307 306 304 303 302 301 301 302 303 304 304 303 303 303 302 301 301 301 301 300 299 299 298 298
291 293 295 295 296 297 297 300 303 302 303 304 303 304 306 307 308 309 308 306 305 305 304 303 303 303 303 303 304 305 304 303 303 302 301 301 302 302 301 300 300 300 300